Time,TemperatureF,DewpointF,PressureIn,WindDirection,WindDirectionDegrees,WindSpeedMPH,WindSpeedGustMPH,Humidity,HourlyPrecipIn,Conditions,Clouds,dailyrainin,SoftwareType,DateUTC
2013-12-07 00:02:00,-2.0,-12.0,-100.00,WNW,295,4.0,11.0,62,0.00,,,-99.99,,2013-12-07 06:02:00,
2013-12-07 00:12:00,-2.0,-12.0,-100.00,WNW,295,4.0,11.0,62,0.00,,,-99.99,,2013-12-07 06:12:00,
2013-12-07 00:43:00,-3.0,-13.0,-100.00,WNW,300,4.0,10.0,62,0.00,,,-99.99,,2013-12-07 06:43:00,
2013-12-07 00:53:00,-3.0,-13.0,-100.00,WNW,300,4.0,10.0,62,0.00,,,-99.99,,2013-12-07 06:53:00,
2013-12-07 01:02:00,-3.0,-13.0,-100.00,WNW,300,4.0,10.0,62,0.00,,,-99.99,,2013-12-07 07:02:00,
2013-12-07 01:11:00,-3.0,-13.0,-100.00,WNW,300,4.0,10.0,62,0.00,,,-99.99,,2013-12-07 07:11:00,
2013-12-07 01:53:00,-4.0,-14.0,-100.00,NW,305,2.0,8.0,62,0.00,,,-99.99,,2013-12-07 07:53:00,
2013-12-07 02:02:00,-4.0,-14.0,-100.00,NW,305,2.0,8.0,62,0.00,,,-99.99,,2013-12-07 08:02:00,
2013-12-07 02:12:00,-4.0,-14.0,-100.00,NW,305,2.0,8.0,62,0.00,,,-99.99,,2013-12-07 08:12:00,
2013-12-07 02:52:00,-5.0,-14.0,-100.00,NW,305,2.0,7.0,62,0.00,,,-99.99,,2013-12-07 08:52:00,
2013-12-07 03:02:00,-5.0,-14.0,-100.00,NW,305,2.0,7.0,62,0.00,,,-99.99,,2013-12-07 09:02:00,
2013-12-07 03:12:00,-5.0,-14.0,-100.00,NW,305,2.0,7.0,62,0.00,,,-99.99,,2013-12-07 09:12:00,
2013-12-07 03:53:00,-5.0,-15.0,-100.00,WNW,300,2.0,11.0,62,0.00,,,-99.99,,2013-12-07 09:53:00,
2013-12-07 04:03:00,-5.0,-15.0,-100.00,WNW,300,2.0,11.0,62,0.00,,,-99.99,,2013-12-07 10:03:00,
2013-12-07 04:13:00,-5.0,-15.0,-100.00,WNW,300,2.0,11.0,62,0.00,,,-99.99,,2013-12-07 10:13:00,
2013-12-07 04:53:00,-6.0,-16.0,-100.00,WNW,300,2.0,7.0,63,0.00,,,-99.99,,2013-12-07 10:53:00,
2013-12-07 05:02:00,-6.0,-16.0,-100.00,WNW,300,2.0,7.0,63,0.00,,,-99.99,,2013-12-07 11:02:00,
2013-12-07 05:12:00,-6.0,-16.0,-100.00,WNW,300,2.0,7.0,63,0.00,,,-99.99,,2013-12-07 11:12:00,
2013-12-07 05:52:00,-7.0,-16.0,-100.00,NW,305,1.0,4.0,64,0.00,,,-99.99,,2013-12-07 11:52:00,
2013-12-07 06:02:00,-7.0,-16.0,-100.00,NW,305,1.0,4.0,64,0.00,,,-99.99,,2013-12-07 12:02:00,
2013-12-07 06:12:00,-7.0,-16.0,-100.00,NW,305,1.0,4.0,64,0.00,,,-99.99,,2013-12-07 12:12:00,
2013-12-07 06:52:00,-8.0,-17.0,-100.00,West,270,3.0,6.0,64,0.00,,,-99.99,,2013-12-07 12:52:00,
2013-12-07 07:02:00,-8.0,-17.0,-100.00,West,270,3.0,6.0,64,0.00,,,-99.99,,2013-12-07 13:02:00,
2013-12-07 07:11:00,-8.0,-17.0,-100.00,West,270,3.0,6.0,64,0.00,,,-99.99,,2013-12-07 13:11:00,
2013-12-07 07:52:00,-9.0,-18.0,-100.00,WNW,295,2.0,6.0,64,0.00,,,-99.99,,2013-12-07 13:52:00,
2013-12-07 08:02:00,-9.0,-18.0,-100.00,WNW,295,2.0,6.0,64,0.00,,,-99.99,,2013-12-07 14:02:00,
2013-12-07 08:12:00,-9.0,-18.0,-100.00,WNW,295,2.0,6.0,64,0.00,,,-99.99,,2013-12-07 14:12:00,
2013-12-07 08:52:00,-6.0,-16.0,-100.00,West,270,3.0,8.0,63,0.00,,,-99.99,,2013-12-07 14:52:00,
2013-12-07 09:02:00,-6.0,-16.0,-100.00,West,270,3.0,8.0,63,0.00,,,-99.99,,2013-12-07 15:02:00,
2013-12-07 09:11:00,-6.0,-16.0,-100.00,West,270,3.0,8.0,63,0.00,,,-99.99,,2013-12-07 15:11:00,
2013-12-07 09:54:00,-3.0,-16.0,-100.00,WNW,295,6.0,10.0,53,0.00,,,-99.99,,2013-12-07 15:54:00,
2013-12-07 10:03:00,-3.0,-16.0,-100.00,WNW,295,6.0,10.0,53,0.00,,,-99.99,,2013-12-07 16:03:00,
2013-12-07 10:13:00,-3.0,-16.0,-100.00,WNW,295,6.0,10.0,53,0.00,,,-99.99,,2013-12-07 16:13:00,
2013-12-07 10:53:00,-1.0,-16.0,-100.00,NW,305,4.0,7.0,48,0.00,,,-99.99,,2013-12-07 16:53:00,
2013-12-07 11:02:00,-1.0,-16.0,-100.00,NW,305,4.0,7.0,48,0.00,,,-99.99,,2013-12-07 17:02:00,
2013-12-07 11:12:00,-1.0,-16.0,-100.00,NW,305,4.0,7.0,48,0.00,,,-99.99,,2013-12-07 17:12:00,
2013-12-07 11:52:00,-1.0,-17.0,-100.00,West,280,6.0,10.0,48,0.00,,,-99.99,,2013-12-07 17:52:00,
2013-12-07 12:02:00,-1.0,-17.0,-100.00,West,280,6.0,10.0,48,0.00,,,-99.99,,2013-12-07 18:02:00,
2013-12-07 12:12:00,-1.0,-17.0,-100.00,West,280,6.0,10.0,48,0.00,,,-99.99,,2013-12-07 18:12:00,
2013-12-07 12:52:00,1.0,-15.0,-100.00,WNW,285,4.0,11.0,47,0.00,,,-99.99,,2013-12-07 18:52:00,
2013-12-07 13:02:00,1.0,-15.0,-100.00,WNW,285,4.0,11.0,47,0.00,,,-99.99,,2013-12-07 19:02:00,
2013-12-07 13:11:00,1.0,-15.0,-100.00,WNW,285,4.0,11.0,47,0.00,,,-99.99,,2013-12-07 19:11:00,
2013-12-07 13:52:00,2.0,-14.0,-100.00,NW,305,2.0,8.0,46,0.00,,,-99.99,,2013-12-07 19:52:00,
2013-12-07 14:02:00,2.0,-14.0,-100.00,NW,305,2.0,8.0,46,0.00,,,-99.99,,2013-12-07 20:02:00,
2013-12-07 14:11:00,2.0,-14.0,-100.00,NW,305,2.0,8.0,46,0.00,,,-99.99,,2013-12-07 20:11:00,
2013-12-07 16:53:00,2.0,-15.0,-100.00,West,260,2.0,6.0,44,0.00,,,-99.99,,2013-12-07 22:53:00,
2013-12-07 17:03:00,2.0,-15.0,-100.00,West,260,2.0,6.0,44,0.00,,,-99.99,,2013-12-07 23:03:00,
2013-12-07 17:12:00,2.0,-15.0,-100.00,West,260,2.0,6.0,44,0.00,,,-99.99,,2013-12-07 23:12:00,
2013-12-07 18:11:00,-1.0,-16.0,-100.00,WSW,250,1.0,5.0,50,0.00,,,-99.99,,2013-12-08 00:11:00,
2013-12-07 18:52:00,-3.0,-15.0,-100.00,West,280,1.0,4.0,56,0.00,,,-99.99,,2013-12-08 00:52:00,
2013-12-07 19:02:00,-3.0,-15.0,-100.00,West,280,1.0,4.0,56,0.00,,,-99.99,,2013-12-08 01:02:00,
2013-12-07 19:12:00,-3.0,-15.0,-100.00,West,280,1.0,4.0,56,0.00,,,-99.99,,2013-12-08 01:12:00,
2013-12-07 19:52:00,-3.0,-13.0,-100.00,NE,35,0.0,1.0,60,0.00,,,-99.99,,2013-12-08 01:52:00,
2013-12-07 20:02:00,-3.0,-13.0,-100.00,NE,35,0.0,1.0,60,0.00,,,-99.99,,2013-12-08 02:02:00,
2013-12-07 20:12:00,-3.0,-13.0,-100.00,NE,35,0.0,1.0,60,0.00,,,-99.99,,2013-12-08 02:12:00,
2013-12-07 20:52:00,-4.0,-14.0,-100.00,ESE,115,0.0,1.0,61,0.00,,,-99.99,,2013-12-08 02:52:00,
2013-12-07 21:02:00,-4.0,-14.0,-100.00,ESE,115,0.0,1.0,61,0.00,,,-99.99,,2013-12-08 03:02:00,
2013-12-07 21:11:00,-4.0,-14.0,-100.00,ESE,115,0.0,1.0,61,0.00,,,-99.99,,2013-12-08 03:11:00,
2013-12-07 21:44:00,-6.0,-15.0,-100.00,ENE,75,0.0,0.0,63,0.00,,,-99.99,,2013-12-08 03:44:00,
2013-12-07 21:54:00,-6.0,-15.0,-100.00,ENE,75,0.0,0.0,63,0.00,,,-99.99,,2013-12-08 03:54:00,
2013-12-07 22:02:00,-999.0,-99.9,-100.00,ENE,75,0.0,0.0,-999,0.00,,,-99.99,,2013-12-08 04:02:00,
2013-12-07 22:13:00,-6.0,-15.0,-100.00,ENE,75,0.0,0.0,63,0.00,,,-99.99,,2013-12-08 04:13:00,
2013-12-07 22:53:00,-7.0,-16.0,-100.00,East,90,0.0,1.0,64,0.00,,,-99.99,,2013-12-08 04:53:00,
2013-12-07 23:03:00,-7.0,-16.0,-100.00,East,90,0.0,1.0,64,0.00,,,-99.99,,2013-12-08 05:03:00,
2013-12-07 23:12:00,-7.0,-16.0,-100.00,East,90,0.0,1.0,64,0.00,,,-99.99,,2013-12-08 05:12:00,
2013-12-07 23:53:00,-8.0,-17.0,-100.00,NE,45,0.0,0.0,64,0.00,,,-99.99,,2013-12-08 05:53:00,